Location: St. Andrews
(45.0670°N, 67.0330°W)
Time: 02:58:24
(UTC-03:00)

Amateur Radio Satellites - All Passes

Search period start: 01 October 2014 02:28
Search period end: 02 October 2014 02:28
Location: St. Andrews, 45.0670°N, 67.0330°W

Satellite Date Start Highest point End Downlink Frequencies (MHz)
Time Altitude Azimuth
AO-Echo 01 Oct 02:30:37 02:34:05 18° 91° (E) 02:37:36 ?
JAS-1B 01 Oct 02:38:30 02:43:12 26° 95° (E) 02:48:07 435.800 - 435.900 CW/SSB
KITSAT 1 01 Oct 02:39:10 02:47:17 76° 55° (NE) 02:55:21 435.175 FM
Gurwin Techsat 1B 01 Oct 02:52:10 02:54:08 12° 87° (E) 02:56:05 435.225 FM
Oscar 19 01 Oct 03:16:13 03:21:24 88° 106° (ESE) 03:26:32 437.125 CW, 437.150 USB
TMSAT-1 01 Oct 03:19:53 03:23:11 16° 89° (E) 03:26:27 436.925 FM
ISS 01 Oct 03:22:53 03:25:54 30° 13° (NNE) 03:28:54 145.800 FM
ITAMSAT 1 01 Oct 03:27:29 03:32:34 49° 100° (E) 03:37:36 435.822 SSB
Uribyol 2 01 Oct 03:28:24 03:33:32 53° 100° (E) 03:38:37 436.500 FM
Oscar 16 01 Oct 03:57:34 04:02:23 40° 292° (WNW) 04:07:08 437.025 USB, Beacon 2401.1428
AO-7 01 Oct 03:57:54 04:00:26 12° 84° (E) 04:02:58 29.400 - 29.500 MHz
SO-50 01 Oct 04:04:31 04:09:08 44° 47° (NE) 04:13:47 436.795 FM
AO-27 01 Oct 04:05:50 04:11:05 77° 287° (WNW) 04:16:18 436.795 MHz FM
AO-Echo 01 Oct 04:08:17 04:13:12 59° 288° (WNW) 04:18:15 ?
RS-15 01 Oct 04:15:28 04:26:28 75° 309° (NW) 04:37:28 29.354 - 29.394 USB, Beacon 29.352 USB
JAS-1B 01 Oct 04:28:46 04:34:10 46° 292° (WNW) 04:39:52 435.800 - 435.900 CW/SSB
Gurwin Techsat 1B 01 Oct 04:29:30 04:34:51 88° 105° (ESE) 04:40:10 435.225 FM
UOSAT-12 01 Oct 04:34:05 04:36:52 15° 30° (NNE) 04:39:38 437.025 FM, 437.400 FM
KITSAT 1 01 Oct 04:35:33 04:41:55 27° 255° (WSW) 04:48:16 435.175 FM
OPAL 01 Oct 04:44:31 04:49:26 44° 66° (ENE) 04:54:22 ?
Oscar 19 01 Oct 04:57:20 05:00:01 14° 303° (WNW) 05:02:40 437.125 CW, 437.150 USB
TMSAT-1 01 Oct 04:58:20 05:03:38 70° 287° (WNW) 05:08:54 436.925 FM
ISS 01 Oct 04:59:30 05:02:50 77° 212° (SSW) 05:06:09 145.800 FM
ITAMSAT 1 01 Oct 05:07:35 05:11:46 25° 297° (WNW) 05:15:56 435.822 SSB
MaSat-1 01 Oct 05:08:22 05:10:14 12° 102° (ESE) 05:12:04 437.345 MHz
Uribyol 2 01 Oct 05:08:36 05:12:39 23° 298° (WNW) 05:16:42 436.500 FM
JAS-2 01 Oct 05:25:30 05:27:23 11° 85° (E) 05:29:19 435.800 - 435.900 CW/SSB, 435.910 FM
Uosat F 01 Oct 05:29:39 05:34:25 41° 98° (E) 05:39:09 435.120 FM
SO-50 01 Oct 05:45:25 05:49:33 29° 245° (WSW) 05:53:42 436.795 FM
AO-7 01 Oct 05:46:39 05:54:53 63° 104° (ESE) 06:03:05 29.400 - 29.500 MHz
AO-27 01 Oct 05:47:39 05:49:44 12° 305° (NW) 05:51:48 436.795 MHz FM
STRAND 1 01 Oct 05:48:39 05:51:14 14° 57° (ENE) 05:53:49 ?
Gurwin Techsat 1B 01 Oct 06:11:11 06:14:05 15° 303° (WNW) 06:17:00 435.225 FM
UOSAT-12 01 Oct 06:13:13 06:17:57 65° 51° (NE) 06:22:35 437.025 FM, 437.400 FM
OPAL 01 Oct 06:24:06 06:28:28 27° 264° (W) 06:32:51 ?
Hamsat 01 Oct 06:24:07 06:26:56 17° 91° (E) 06:29:43 145.90 MHz
RS-15 01 Oct 06:31:29 06:40:59 32° 338° (NNW) 06:50:35 29.354 - 29.394 USB, Beacon 29.352 USB
ISS 01 Oct 06:37:50 06:39:01 12° 229° (SW) 06:40:12 145.800 FM
TMSAT-1 01 Oct 06:40:57 06:42:36 11° 306° (NW) 06:44:15 436.925 FM
MaSat-1 01 Oct 06:41:15 06:46:08 88° 299° (WNW) 06:50:44 437.345 MHz
JAS-2 01 Oct 07:06:48 07:13:23 65° 102° (ESE) 07:20:44 435.800 - 435.900 CW/SSB, 435.910 FM
Uosat F 01 Oct 07:08:48 07:13:01 28° 296° (WNW) 07:17:14 435.120 FM
STRAND 1 01 Oct 07:24:35 07:29:41 89° 254° (WSW) 07:34:50 ?
AO-7 01 Oct 07:40:02 07:47:14 35° 304° (NW) 07:54:27 29.400 - 29.500 MHz
UOSAT-12 01 Oct 07:54:29 07:57:36 18° 250° (WSW) 08:00:40 437.025 FM, 437.400 FM
Hamsat 01 Oct 07:59:07 08:03:08 44° 289° (WNW) 08:07:06 145.90 MHz
MaSat-1 01 Oct 08:20:24 08:23:11 15° 315° (NW) 08:25:51 437.345 MHz
SO-67 01 Oct 08:35:58 08:39:26 73° 101° (ESE) 08:42:52 435.3500 MHz FM
RS-15 01 Oct 08:48:33 08:57:43 29° 14° (NNE) 09:07:05 29.354 - 29.394 USB, Beacon 29.352 USB
PCSat 01 Oct 08:49:05 08:50:14 11° 101° (E) 08:51:23 145.825 MHz
JAS-2 01 Oct 08:52:42 08:58:04 28° 298° (WNW) 09:03:55 435.800 - 435.900 CW/SSB, 435.910 FM
STRAND 1 01 Oct 09:07:58 09:09:37 11° 273° (W) 09:11:15 ?
HO-68 01 Oct 10:01:50 10:08:37 43° 98° (E) 10:15:22 435.675 MHz FM
Sapphire 01 Oct 10:02:05 10:07:10 44° 114° (ESE) 10:12:18 437.095 MHz 1200 baud AX-25 AFSK
Oscar 11 01 Oct 10:17:26 10:20:23 18° 92° (E) 10:23:19 145.825 FM, Beacon 2401.500 USB
PCSat 01 Oct 10:27:17 10:32:41 75° 119° (ESE) 10:38:07 145.825 MHz
FUNcube-1 01 Oct 10:42:21 10:44:55 15° 89° (E) 10:47:26 145.950 - 145.970 MHz USB
UKube-1 01 Oct 10:46:09 10:50:19 42° 99° (E) 10:54:28 145.840 MHz, 145.915 MHz
RS-15 01 Oct 11:02:07 11:13:02 59° 45° (NE) 11:24:20 29.354 - 29.394 USB, Beacon 29.352 USB
ZACube-1 01 Oct 11:26:16 11:30:36 41° 97° (E) 11:34:49 437.345 MHz
Sapphire 01 Oct 11:45:50 11:50:43 34° 313° (NW) 11:55:39 437.095 MHz 1200 baud AX-25 AFSK
HO-68 01 Oct 11:49:39 11:56:18 43° 297° (WNW) 12:02:57 435.675 MHz FM
Oscar 11 01 Oct 11:52:40 11:56:49 46° 289° (WNW) 12:00:56 145.825 FM, Beacon 2401.500 USB
PCSat 01 Oct 12:12:27 12:16:41 23° 320° (NW) 12:20:57 145.825 MHz
FUNcube-1 01 Oct 12:17:13 12:21:44 61° 287° (WNW) 12:26:08 145.950 - 145.970 MHz USB
UKube-1 01 Oct 12:22:58 12:26:15 21° 296° (WNW) 12:29:31 145.840 MHz, 145.915 MHz
Oscar 19 01 Oct 12:57:22 13:01:20 23° 62° (ENE) 13:05:19 437.125 CW, 437.150 USB
ZACube-1 01 Oct 13:03:10 13:06:45 23° 295° (WNW) 13:10:16 437.345 MHz
ITAMSAT 1 01 Oct 13:11:21 13:13:57 14° 56° (ENE) 13:16:33 435.822 SSB
Uribyol 2 01 Oct 13:11:51 13:14:43 15° 57° (ENE) 13:17:35 436.500 FM
RS-15 01 Oct 13:14:50 13:25:16 49° 248° (WSW) 13:36:09 29.354 - 29.394 USB, Beacon 29.352 USB
JAS-1B 01 Oct 13:25:45 13:32:03 33° 64° (ENE) 13:37:33 435.800 - 435.900 CW/SSB
Oscar 16 01 Oct 13:37:12 13:42:11 50° 70° (ENE) 13:47:12 437.025 USB, Beacon 2401.1428
AO-Echo 01 Oct 13:45:44 13:49:41 28° 65° (ENE) 13:53:40 ?
AO-27 01 Oct 13:47:42 13:52:03 28° 64° (ENE) 13:56:26 436.795 MHz FM
Gurwin Techsat 1B 01 Oct 14:14:13 14:18:26 25° 63° (ENE) 14:22:41 435.225 FM
Oscar 19 01 Oct 14:35:15 14:40:19 54° 260° (W) 14:45:25 437.125 CW, 437.150 USB
TMSAT-1 01 Oct 14:42:10 14:46:47 32° 65° (ENE) 14:51:26 436.925 FM
ITAMSAT 1 01 Oct 14:47:30 14:52:40 88° 75° (ENE) 14:57:55 435.822 SSB
Uribyol 2 01 Oct 14:48:17 14:53:28 86° 255° (WSW) 14:58:43 436.500 FM
MaSat-1 01 Oct 14:55:10 14:58:10 25° 51° (NE) 15:00:48 437.345 MHz
AO-7 01 Oct 14:57:40 15:04:02 26° 50° (NE) 15:10:24 29.400 - 29.500 MHz
Saudisat 1A 01 Oct 14:59:10 15:03:32 71° 123° (ESE) 15:07:56 436.775 MHz
Uosat F 01 Oct 15:10:53 15:11:54 11° 54° (NE) 15:12:54 435.120 FM
JAS-1B 01 Oct 15:15:17 15:22:34 50° 260° (W) 15:28:47 435.800 - 435.900 CW/SSB
Oscar 16 01 Oct 15:17:45 15:21:48 23° 267° (W) 15:25:53 437.025 USB, Beacon 2401.1428
AO-Echo 01 Oct 15:24:04 15:28:21 35° 263° (W) 15:32:41 ?
AO-27 01 Oct 15:26:31 15:31:23 42° 262° (W) 15:36:19 436.795 MHz FM
Gurwin Techsat 1B 01 Oct 15:52:58 15:58:06 50° 261° (W) 16:03:16 435.225 FM
TMSAT-1 01 Oct 16:21:44 16:26:37 38° 263° (W) 16:31:32 436.925 FM
ITAMSAT 1 01 Oct 16:30:52 16:32:53 12° 273° (W) 16:34:55 435.822 SSB
MaSat-1 01 Oct 16:31:59 16:34:24 19° 255° (WSW) 16:36:36 437.345 MHz
Uribyol 2 01 Oct 16:32:13 16:33:43 11° 273° (W) 16:35:14 436.500 FM
Saudisat 1A 01 Oct 16:40:18 16:43:35 20° 323° (NW) 16:46:52 436.775 MHz
Uosat F 01 Oct 16:44:48 16:49:45 70° 73° (ENE) 16:54:46 435.120 FM
AO-7 01 Oct 16:47:35 16:55:54 87° 251° (WSW) 17:04:15 29.400 - 29.500 MHz
Sapphire 01 Oct 17:05:40 17:08:30 14° 31° (NNE) 17:11:20 437.095 MHz 1200 baud AX-25 AFSK
KITSAT 1 01 Oct 17:09:52 17:17:11 40° 110° (ESE) 17:24:31 435.175 FM
Hamsat 01 Oct 17:19:38 17:22:33 18° 64° (ENE) 17:25:26 145.90 MHz
JAS-2 01 Oct 17:23:00 17:27:27 30° 63° (ENE) 17:32:09 435.800 - 435.900 CW/SSB, 435.910 FM
PCSat 01 Oct 17:30:41 17:34:38 20° 38° (NE) 17:38:34 145.825 MHz
Uosat F 01 Oct 18:26:12 18:29:04 15° 270° (W) 18:31:56 435.120 FM
OPAL 01 Oct 18:30:58 18:36:05 69° 105° (ESE) 18:41:05 ?
AO-7 01 Oct 18:44:20 18:49:48 19° 271° (W) 18:55:19 29.400 - 29.500 MHz
Sapphire 01 Oct 18:47:49 18:53:11 55° 53° (NE) 18:58:30 437.095 MHz 1200 baud AX-25 AFSK
Oscar 10/S400 01 Oct 18:51:43 19:11:02 51° 166° (SSE) 20:42:24 145.825 - 145.975 CW/USB, Beacon 145.810 USB
Hamsat 01 Oct 18:53:56 18:58:09 49° 261° (W) 19:02:21 145.90 MHz
KITSAT 1 01 Oct 19:04:26 19:12:21 56° 311° (NW) 19:20:18 435.175 FM
JAS-2 01 Oct 19:07:40 19:12:28 38° 264° (W) 19:17:32 435.800 - 435.900 CW/SSB, 435.910 FM
SO-67 01 Oct 19:10:46 19:13:51 31° 71° (ENE) 19:16:57 435.3500 MHz FM
PCSat 01 Oct 19:13:21 19:18:49 90° 241° (WSW) 19:24:15 145.825 MHz
STRAND 1 01 Oct 19:33:40 19:38:00 27° 94° (E) 19:42:18 ?
SO-50 01 Oct 20:01:29 20:05:54 60° 121° (ESE) 20:10:27 436.795 FM
OPAL 01 Oct 20:10:59 20:14:26 19° 303° (WNW) 20:17:50 ?
UOSAT-12 01 Oct 20:29:28 20:31:01 12° 107° (ESE) 20:32:35 437.025 FM, 437.400 FM
Sapphire 01 Oct 20:31:56 20:36:14 24° 252° (WSW) 20:40:30 437.095 MHz 1200 baud AX-25 AFSK
HO-68 01 Oct 20:32:35 20:39:06 40° 62° (ENE) 20:45:39 435.675 MHz FM
SO-67 01 Oct 20:44:43 20:46:57 16° 268° (W) 20:49:13 435.3500 MHz FM
PCSat 01 Oct 20:58:50 21:01:25 14° 257° (WSW) 21:04:01 145.825 MHz
KITSAT 1 01 Oct 21:03:49 21:09:44 21° 337° (NNW) 21:15:40 435.175 FM
STRAND 1 01 Oct 21:12:29 21:17:19 42° 292° (WNW) 21:22:08 ?
Oscar 11 01 Oct 21:14:37 21:17:43 19° 64° (ENE) 21:20:50 145.825 FM, Beacon 2401.500 USB
FUNcube-1 01 Oct 21:40:44 21:43:39 17° 62° (ENE) 21:46:36 145.950 - 145.970 MHz USB
SO-50 01 Oct 21:43:11 21:46:51 23° 322° (NW) 21:50:36 436.795 FM
UKube-1 01 Oct 21:43:26 21:47:35 48° 71° (ENE) 21:51:47 145.840 MHz, 145.915 MHz
ISS 01 Oct 21:45:02 21:46:11 11° 131° (SE) 21:47:20 145.800 FM
Saudisat 1A 01 Oct 21:45:17 21:48:24 18° 36° (NE) 21:51:30 436.775 MHz
UOSAT-12 01 Oct 22:05:46 22:10:24 88° 126° (SE) 22:15:10 437.025 FM, 437.400 FM
HO-68 01 Oct 22:19:57 22:26:43 45° 261° (W) 22:33:33 435.675 MHz FM
ZACube-1 01 Oct 22:24:22 22:28:40 42° 70° (ENE) 22:33:02 437.345 MHz
Oscar 11 01 Oct 22:49:23 22:53:35 46° 261° (W) 22:57:48 145.825 FM, Beacon 2401.500 USB
KITSAT 1 01 Oct 23:03:51 23:08:45 17° 8° (N) 23:13:39 435.175 FM
FUNcube-1 01 Oct 23:15:03 23:19:33 61° 259° (W) 23:24:09 145.950 - 145.970 MHz USB
ISS 01 Oct 23:19:02 23:22:21 76° 148° (SSE) 23:25:41 145.800 FM
UKube-1 01 Oct 23:21:09 23:24:03 17° 268° (W) 23:26:58 145.840 MHz, 145.915 MHz
Saudisat 1A 01 Oct 23:24:05 23:28:32 81° 236° (SW) 23:32:56 436.775 MHz
UOSAT-12 01 Oct 23:47:52 23:51:13 19° 325° (NW) 23:54:36 437.025 FM, 437.400 FM
ZACube-1 02 Oct 00:01:44 00:05:15 22° 268° (W) 00:08:49 437.345 MHz
ISS 02 Oct 00:56:17 00:59:18 31° 347° (NNW) 01:02:19 145.800 FM
KITSAT 1 02 Oct 01:00:01 01:07:09 33° 37° (NE) 01:14:14 435.175 FM
RS-15 02 Oct 01:31:24 01:39:34 25° 102° (ESE) 01:47:37 29.354 - 29.394 USB, Beacon 29.352 USB
Oscar 16 02 Oct 01:48:22 01:51:12 15° 89° (E) 01:54:00 437.025 USB, Beacon 2401.1428
